Simultaneous Nadir Overpasses (SNOs) Predictions

Prediction of SNOs between GOES-17 and METOP-C Satellite Orbit:

Table of predicted SNOs for the next 14.0 days since TLE Epoch: 3/4/2023
Index Date Time (GOES-17) GOES-17 Lat,Lon METOP-C Lat,Lon Distance(km) Time Diff (sec)
1 03/05/2023 16:30:00 -0.00,-104.72 -0.07,-104.53 21.88 80
2 03/08/2023 04:25:39 0.01,-104.70 0.11,-104.12 65.58 80
3 03/09/2023 16:44:30 -0.01,-104.73 0.89,-108.68 450.38 80
4 03/10/2023 16:26:31 -0.01,-104.73 -0.26,-103.69 119.38 80
5 03/12/2023 04:45:29 0.01,-104.71 -0.81,-108.27 406.26 80
6 03/13/2023 04:22:10 0.01,-104.71 0.34,-103.28 163.18 80
7 03/14/2023 16:41:00 -0.00,-104.74 0.71,-107.83 353.61 80
8 03/15/2023 16:23:01 -0.01,-104.73 -0.44,-102.84 215.67 80
9 03/17/2023 04:41:59 0.00,-104.70 -0.59,-107.43 310.32 80
